Location: Grust
(42.8833°N, 0.0333°W)
Time: 14:06:52
(UTC+00:00)

Cosmos 2263 Rocket - Pass Details

Date: 25 October 2020
Orbit: 822 x 850 km, 71.0° (Epoch: 24 November)

Event Time Altitude Azimuth Distance (km) Brightness Sun altitude
Rises 19:44:56 0° 341° (NNW) 3,419 5.7 -30.4°
Reaches altitude 10° 19:47:35 10° 350° (N) 2,482 4.9 -30.9°
Enters shadow 19:49:37 21° 2° (N) 1,843 4.0 -31.3°
